Total_Precipitation_Accumulation
0.21 0.27 0.36 0.39 0.31 0.30 0.34 0.41 0.56 0.56 0.73 0.98 1.06 0.99 1.06 1.13 0.91 0.82 0.88 0.84 0.75 0.85 1.05 1.16 1.19 1.19 1.13 1.16 1.22 1.37 1.64 1.81 1.89 1.93 1.86 1.78 1.65 1.54 1.50 1.50 1.46 1.52 1.67 1.76
0.23 0.31 0.38 0.41 0.33 0.26 0.26 0.29 0.35 0.46 0.69 0.81 0.78 0.85 0.92 0.93 0.91 0.94 1.00 0.94 0.86 0.85 0.92 1.08 1.17 1.24 1.27 1.36 1.43 1.50 1.53 1.59 1.73 1.84 1.86 1.81 1.62 1.53 1.57 1.56 1.52 1.51 1.53 1.65
0.37 0.37 0.46 0.51 0.40 0.36 0.31 0.28 0.39 0.61 0.84 0.81 0.82 0.89 0.85 0.85 0.83 0.96 1.01 0.89 0.85 0.87 0.92 0.98 1.02 1.12 1.39 1.43 1.41 1.43 1.50 1.58 1.74 1.77 1.75 1.70 1.54 1.53 1.56 1.56 1.59 1.62 1.57 1.60
0.50 0.65 0.79 0.55 0.37 0.37 0.37 0.40 0.49 0.62 0.69 0.71 0.72 0.79 0.81 0.78 0.77 0.74 0.79 0.76 0.77 0.84 0.93 0.95 0.93 0.95 1.08 1.24 1.37 1.43 1.47 1.54 1.63 1.66 1.72 1.78 1.71 1.63 1.69 1.72 1.64 1.65 1.65 1.65
0.64 0.83 0.70 0.49 0.43 0.46 0.54 0.62 0.63 0.68 0.72 0.71 0.72 0.85 0.96 0.80 0.72 0.68 0.68 0.73 0.84 0.96 0.94 0.93 0.93 0.95 1.07 1.22 1.36 1.50 1.55 1.58 1.59 1.68 1.83 1.86 1.77 1.75 1.80 1.78 1.65 1.62 1.61 1.62
0.77 0.97 0.91 0.71 0.54 0.48 0.62 1.05 0.78 0.73 0.77 0.79 0.83 1.08 1.18 0.88 0.78 0.77 0.81 0.85 0.82 0.81 0.81 0.85 0.95 1.05 1.12 1.29 1.51 1.61 1.62 1.70 1.77 1.82 1.95 2.08 2.11 2.04 1.96 1.93 1.84 1.79 1.71 1.70
0.91 1.05 0.90 0.66 0.55 0.63 1.09 1.35 0.97 0.91 0.90 0.89 0.99 0.98 0.95 0.87 0.78 0.79 0.83 0.89 0.90 0.92 0.93 0.97 1.00 1.16 1.37 1.49 1.58 1.65 1.71 1.78 1.98 2.07 2.19 2.33 2.52 2.42 2.35 2.26 2.23 2.16 2.06 1.98
1.16 1.33 1.32 0.80 0.67 1.01 1.27 1.06 1.08 1.11 1.05 1.05 0.94 0.80 0.80 0.85 0.80 0.75 0.77 0.90 1.01 1.14 1.17 1.10 1.08 1.20 1.40 1.53 1.62 1.80 1.86 1.94 2.01 2.15 2.22 2.38 2.76 2.76 2.78 2.78 2.59 2.48 2.37 2.25
1.46 1.47 1.19 1.02 1.07 1.12 1.19 1.15 1.16 1.04 0.92 0.94 0.91 0.86 0.89 0.98 0.98 0.88 0.84 0.94 1.01 1.16 1.25 1.27 1.33 1.47 1.67 1.74 1.83 1.93 2.07 2.20 2.27 2.35 2.53 2.64 2.79 2.84 2.87 2.84 2.69 2.54 2.40 2.20
1.62 1.49 1.34 1.21 1.10 1.14 1.30 1.24 1.11 0.98 0.93 0.95 0.95 0.89 0.86 0.88 0.93 0.91 0.88 0.97 1.09 1.20 1.42 1.55 1.62 1.76 1.92 2.03 2.13 2.25 2.38 2.47 2.51 2.56 2.59 2.65 2.81 2.83 2.83 2.79 2.65 2.55 2.47 2.30
1.78 1.68 1.64 1.45 1.15 1.07 1.10 1.06 0.98 0.99 0.97 0.96 1.01 0.96 0.89 0.86 0.86 0.94 1.06 1.16 1.25 1.42 1.62 1.67 1.77 1.87 1.99 2.21 2.40 2.49 2.50 2.50 2.48 2.50 2.61 2.70 2.70 2.69 2.74 2.76 2.76 2.74 2.67 2.66
2.00 1.76 1.72 1.63 1.33 1.15 1.03 0.97 0.96 1.09 1.12 1.02 1.03 1.07 1.02 1.02 1.03 1.07 1.16 1.30 1.43 1.58 1.74 1.83 1.97 2.09 2.19 2.37 2.58 2.75 2.69 2.60 2.60 2.64 2.68 2.66 2.63 2.59 2.63 2.54 2.50 2.47 2.50 2.57
1.69 1.55 1.52 1.49 1.40 1.25 1.06 1.01 1.01 1.17 1.22 1.17 1.12 1.11 1.14 1.18 1.19 1.19 1.24 1.37 1.48 1.58 1.73 1.82 1.90 2.05 2.21 2.44 2.61 2.75 2.73 2.69 2.73 2.84 2.91 2.84 2.81 2.76 2.78 2.66 2.48 2.31 2.32 2.43
1.59 1.64 1.69 1.56 1.50 1.38 1.23 1.24 1.30 1.41 1.39 1.37 1.36 1.32 1.34 1.41 1.36 1.35 1.45 1.53 1.53 1.66 1.73 1.82 1.90 1.96 2.05 2.29 2.51 2.62 2.67 2.75 2.76 2.79 2.84 2.78 2.79 2.80 2.79 2.69 2.55 2.34 2.24 2.26
1.63 1.71 1.80 1.69 1.58 1.50 1.36 1.34 1.47 1.53 1.52 1.50 1.49 1.59 1.74 1.78 1.65 1.55 1.55 1.62 1.68 1.76 1.72 1.80 1.95 2.09 2.20 2.37 2.49 2.56 2.57 2.52 2.53 2.59 2.65 2.74 2.74 2.63 2.55 2.50 2.41 2.30 2.14 2.13
1.54 1.59 1.69 1.76 1.75 1.66 1.49 1.52 1.62 1.51 1.51 1.64 1.68 1.72 1.73 1.77 1.82 1.76 1.62 1.61 1.76 1.82 1.79 1.82 1.92 2.06 2.24 2.37 2.42 2.48 2.53 2.59 2.58 2.50 2.49 2.54 2.54 2.48 2.39 2.34 2.33 2.31 2.14 2.11
1.75 1.83 1.84 1.94 1.97 1.74 1.65 1.61 1.61 1.57 1.50 1.61 1.70 1.69 1.67 1.71 1.87 1.96 1.89 1.82 1.84 1.87 1.92 1.96 1.95 2.04 2.21 2.45 2.54 2.44 2.31 2.29 2.42 2.41 2.38 2.46 2.50 2.49 2.44 2.41 2.33 2.24 2.10 2.05
1.74 1.73 1.78 1.92 2.04 1.89 1.85 1.79 1.73 1.76 1.75 1.77 1.83 1.76 1.74 1.80 1.87 1.90 1.91 1.86 1.84 1.79 1.80 1.93 1.96 1.97 2.07 2.41 2.67 2.56 2.36 2.24 2.14 2.18 2.26 2.36 2.43 2.45 2.36 2.34 2.29 2.14 1.99 1.93
1.71 1.69 1.71 1.82 1.86 1.86 1.91 1.94 1.84 1.77 1.77 1.81 1.95 1.90 1.91 1.94 1.91 1.81 1.80 1.82 1.83 1.82 1.81 1.88 2.01 1.93 1.96 2.16 2.39 2.34 2.22 2.14 2.08 2.09 2.23 2.40 2.40 2.29 2.21 2.16 2.18 2.11 1.99 1.95
1.76 1.74 1.75 1.76 1.77 1.79 1.79 1.79 1.82 1.82 1.83 1.86 1.86 1.81 1.89 1.94 1.93 1.81 1.80 1.84 1.82 1.86 1.89 1.89 1.73 1.72 1.84 2.07 2.23 2.13 2.15 2.13 2.06 2.03 2.12 2.26 2.28 2.19 2.00 1.93 1.94 1.94 1.84 1.77
1.86 1.81 1.77 1.78 1.80 1.74 1.72 1.76 1.85 1.88 1.94 1.91 1.86 1.84 1.94 2.00 1.97 1.94 1.97 1.99 1.86 1.82 1.82 1.89 1.68 1.60 1.63 1.94 2.11 1.95 1.99 2.05 2.04 2.01 2.05 2.11 2.08 2.00 1.88 1.83 1.77 1.70 1.68 1.67
1.84 1.83 1.81 1.81 1.83 1.81 1.67 1.68 1.77 1.79 1.82 1.79 1.77 1.78 1.90 2.02 2.05 1.99 1.88 1.97 1.95 1.93 1.75 1.72 1.62 1.64 1.66 1.78 1.81 1.93 1.93 1.97 2.01 1.97 1.95 1.98 2.03 1.96 1.81 1.79 1.78 1.72 1.65 1.65
1.78 1.72 1.70 1.78 1.85 1.79 1.60 1.57 1.59 1.66 1.67 1.65 1.71 1.80 1.92 1.98 2.00 2.05 1.89 1.72 1.74 1.84 1.70 1.62 1.60 1.56 1.50 1.43 1.51 1.72 1.82 1.88 1.90 1.90 1.87 1.83 1.84 1.78 1.69 1.64 1.66 1.63 1.61 1.56
1.73 1.65 1.59 1.67 1.71 1.74 1.78 1.69 1.59 1.61 1.61 1.64 1.71 1.82 1.97 1.95 1.81 1.66 1.55 1.60 1.65 1.57 1.43 1.41 1.33 1.24 1.25 1.23 1.41 1.64 1.77 1.78 1.76 1.81 1.78 1.72 1.68 1.64 1.65 1.66 1.62 1.54 1.49 1.42
1.68 1.59 1.57 1.66 1.73 1.80 1.83 1.78 1.70 1.67 1.67 1.69 1.74 1.80 1.84 1.89 1.87 1.67 1.48 1.44 1.53 1.42 1.29 1.32 1.29 1.25 1.17 1.23 1.36 1.51 1.62 1.64 1.66 1.70 1.64 1.52 1.48 1.52 1.59 1.63 1.61 1.56 1.47 1.33
1.62 1.60 1.68 1.72 1.75 1.77 1.80 1.84 1.86 1.82 1.86 1.88 1.82 1.77 1.74 1.72 1.69 1.60 1.52 1.43 1.45 1.40 1.25 1.25 1.24 1.20 1.17 1.26 1.37 1.47 1.53 1.55 1.54 1.58 1.58 1.54 1.51 1.52 1.58 1.54 1.49 1.46 1.36 1.26
1.55 1.57 1.67 1.71 1.70 1.65 1.70 1.86 2.02 2.04 2.06 2.07 2.05 1.94 1.83 1.73 1.64 1.55 1.50 1.48 1.47 1.41 1.36 1.32 1.29 1.24 1.23 1.29 1.41 1.52 1.57 1.59 1.55 1.48 1.49 1.51 1.53 1.45 1.41 1.39 1.35 1.29 1.18 1.15